Nasudden, Sweden

7:02 PM CET on February 27, 2015 (GMT +0100)
Visby | Change Station
CLOSE
Current Station
Airport
Location: Visby Flygplats,
Elevation: 154 ft
Nearby Weather Stations

Elev 154 ft 57.66 °N, 18.35 °E | Updated 12 minutes ago

Mostly Cloudy
Mostly Cloudy
37 °F
Feels Like 33 °F
N
6
Wind Variable Wind from SSE

Today
High -- | Low -- °F
--% Chance of Precip.
Yesterday
High -- | Low -- °F
Precip. -- in
6:46 AM 5:14 PM
Waxing Gibbous, 70% visible
Pressure 30.01 in
Visibility 5.0 miles
Clouds Mostly Cloudy 800 ft
Windchill 33 °F
Dew Point 37 °F
Humidity 100%
Rainfall 0.00 in
Snow Depth Not available.
UV 0 out of 12
Pollen Not available.
Air Quality Not available.
Flu Activity Not available.
METAR ESSV 271750Z 16005KT 8000 BR BKN008 03/03 Q1016 R21/CLRD//

More Conditions Fewer Conditions

Pressure 30.01 in
Visibility 5.0 miles
Clouds Mostly Cloudy 800 ft
Windchill 33 °F
Dew Point 37 °F
Humidity 100%
Rainfall 0.00 in
Snow Depth Not available.
UV 0 out of 12
Pollen Not available.
Air Quality Not available.
Flu Activity Not available.
METAR ESSV 271750Z 16005KT 8000 BR BKN008 03/03 Q1016 R21/CLRD//

More Conditions Fewer Conditions

10-Day Weather Forecast

Almanac

Astronomy

Feb. 27, 2015 Rise Set
Actual Time
Civil Twilight
Nautical Twilight
Astronomical Twilight
Moon
Length of Visible Light
Length of Day
Tomorrow will be .
, % of the Moon is Illuminated

Today's Extremes

Country Highs Country Lows

Community

WunderPhotos

Upload Photos

1,800,773 photos uploaded!

WunderBlogs® & News

Nearby

Air Quality

  Air Quality AQ Index Pollutant
Not available.

Snow Depth

Station Depth Elevation

Earthquake Activity

City Distance Mag. Time & Date
Minimum magnitude displayed is 2.5.

Coastal Water Temperatures

Place Temperature

Nearby Weather Stations